Location: Alma
(38.7220°N, 88.9090°W)
Time: 01:57:39
(UTC-06:00)

Vanguard 2 Rocket - Pass Details

Date: 17 November 2019
Orbit: 554 x 3326 km, 32.9° (Epoch: 13 December)

Event Time Altitude Azimuth Distance (km) Brightness Sun altitude
Rises 00:31:06 0° 218° (SW) 2,710 - -67.4°
Reaches altitude 10° 00:33:38 10° 199° (SSW) 1,877 - -67.1°
Maximum altitude 00:36:40 20° 151° (SSE) 1,505 - -66.8°
Drops below altitude 10° 00:40:19 10° 105° (ESE) 2,333 - -66.3°
Sets 00:43:57 0° 90° (E) 3,649 - -65.9°
